Location: Kitchener
(43.4500°N, 80.5000°W)
Time: 18:20:22
(UTC-04:00)

Daily predictions for brighter satellites

Satellite Brightness Start Highest point End
(mag) Time Altitude Azimuth Time Altitude Azimuth Time Altitude Azimuth
Cosmos 2346 Rocket 4.4 19:26:17 10° N 19:32:23 78° E 19:38:25 10° SSE
ATLAS CENTAUR R/B 3.8 19:28:04 10° S 19:32:46 48° ESE 19:46:21 10° NE
Cosmos 1371 Rocket 4.5 19:34:00 10° NNW 19:39:17 70° WSW 19:44:34 10° S
SJ-6B 2.9 19:39:03 10° SSE 19:42:58 61° ENE 19:47:00 10° N
COSMO-SKYMED 1 2.8 19:39:33 10° N 19:43:55 79° WNW 19:48:14 10° SSW
IDEFIX/ARIANE 42P 4.3 19:43:01 10° SSW 19:47:50 38° W 19:52:43 10° NNW
Cosmos 2333 Rocket 3.4 19:42:28 10° SW 19:48:00 47° WNW 19:53:33 10° NNE
Timation 1 Rocket 4.3 19:44:51 10° NNW 19:50:51 76° ENE 19:56:48 10° SSE
Cosmos 192 4.5 19:46:54 10° S 19:51:43 54° ESE 19:56:34 10° NNE
NOAA 12 4.1 19:46:59 10° SSE 19:52:13 73° ENE 19:57:30 10° N
Spot 1 4.4 19:48:15 10° SSE 19:52:52 54° ENE 19:57:14 10° N
Cosmos 1758 4.1 19:50:09 10° SSE 19:53:47 32° E 19:57:28 10° NNE
HJ-1C 3.8 19:51:59 10° SE 19:55:09 41° ENE 19:58:22 10° N
In-Cosmos 22 4.4 19:50:10 10° N 19:55:50 54° ENE 20:01:27 10° SSE
USA 215 3.5 19:49:58 10° ENE 19:56:15 48° SE 20:02:31 10° SSW
OAO 3 Rocket 4.4 19:55:00 10° SW 19:59:06 29° S 20:02:48 12° ESE
Cosmos 1674 4.2 19:57:15 10° NNE 20:00:00 18° ENE 20:01:37 15° ESE
Aureole 2 Rocket 3.1 19:55:55 10° SSW 20:00:19 84° WNW 20:04:37 10° NNE
Cosmos 1484 Rocket 4.3 19:58:07 10° S 20:01:45 41° W 20:05:28 10° NNW
SAR-Lupe-1 4.4 19:59:03 10° S 20:02:35 69° WSW 20:06:09 10° NNW
Cosmos 1766 Rocket 3.6 19:59:19 10° N 20:03:39 59° E 20:07:55 10° SSE
CZ-4C R/B 3.5 20:03:32 10° WSW 20:08:40 41° NW 20:14:29 10° NNE
ALOS 2.8 20:05:06 10° SE 20:09:24 38° ENE 20:13:43 10° N
Cosmos 2237 Rocket 3.8 20:06:08 10° WSW 20:11:21 37° WNW 20:16:36 10° N
Cosmos 2034 Rocket 4.0 20:05:20 10° S 20:11:28 61° E 20:17:42 10° NNE
Helios 1B rocket 2.5 20:07:30 10° NNE 20:11:32 53° E 20:15:33 10° S
Meteor 1-29 3.3 20:08:44 10° NNE 20:12:06 42° E 20:15:25 10° S
Meteor 1-21 Rocket 4.3 20:07:29 10° N 20:12:57 55° ENE 20:18:22 10° SSE
Cosmos 1464 Rocket 4.0 20:07:03 10° S 20:13:18 84° E 20:19:31 10° N
ATLAS 5 CENTAUR R/B 1.8 20:10:12 10° SSW 20:14:55 66° ESE 20:20:03 10° NE
Cosmos 1076 Rocket 3.5 20:10:36 10° N 20:14:58 85° W 20:19:18 10° S
SeaSat 1 3.6 20:13:06 10° ENE 20:16:43 20° ESE 20:20:18 10° SSE
Cosmos-2242 3.0 20:17:54 10° S 20:22:11 61° E 20:26:32 10° NNE
Cosmos 1766 4.2 20:18:20 10° SSW 20:22:12 51° W 20:26:07 10° N
CZ-4B DEB 3.1 20:23:55 24° SE 20:25:33 45° ENE 20:28:42 10° N
Cosmos 1452 Rocket 3.5 20:20:51 10° NNW 20:26:08 84° WSW 20:31:23 10° SSE
SL-16 R/B 3.0 20:25:45 10° SW 20:31:18 55° WNW 20:36:55 10° NNE
FREGAT/IRIS 4.5 20:28:41 10° SSW 20:31:32 33° W 20:34:24 10° NNW
NOSS 3-2 (A) 3.8 20:25:37 10° SW 20:31:42 70° NW 20:38:24 10° NNE
ATLAS CENTAUR R/B 4.2 20:30:37 10° WNW 20:32:51 14° WSW 20:35:00 10° SW
Cosmos 2151 4.2 20:30:17 10° NNE 20:33:20 23° ENE 20:33:20 23° ENE
CZ-2D R/B 3.4 20:33:53 25° SE 20:35:53 53° ENE 20:39:42 10° N
Cosmos 1500 Rocket 3.8 20:33:02 10° N 20:37:20 48° ENE 20:39:25 27° SE
Cosmos 1408 Rocket 4.3 20:33:07 10° NNW 20:37:23 55° W 20:41:36 10° S
Cosmos 1842 Rocket 3.8 20:33:20 10° SSE 20:37:24 42° E 20:41:31 10° NNE
SL-8 R/B 4.1 20:36:22 10° SSW 20:40:50 41° SE 20:42:04 34° ESE
TELKOM 3 3.5 20:39:10 10° WNW 20:41:31 53° NNW 20:41:31 53° NNW
Cosmos 1544 3.0 20:38:53 10° S 20:42:36 82° E 20:46:22 10° N
Cosmos 468 4.4 20:38:52 10° SSW 20:44:07 82° ESE 20:49:23 10° NNE
Gbstr 26 Del rocket 4.3 20:42:40 10° S 20:45:51 27° SE 20:45:51 27° SE
Cosmos 1953 2.9 20:43:50 10° SSW 20:47:45 57° W 20:51:41 10° N
Cosmos 1420 Rocket 3.9 20:42:55 10° NNW 20:48:15 85° ENE 20:52:00 20° SSE
H-2A R/B 2.6 20:50:10 32° SSE 20:51:54 81° ENE 20:55:48 10° N
Cosmos 1805 4.2 20:48:43 10° SSW 20:52:32 50° WNW 20:56:24 10° N
FENGYUN 3A 3.6 20:48:28 10° SSE 20:53:50 85° WSW 20:59:16 10° NNW
Resurs 1-3 4.4 20:51:14 10° S 20:55:30 51° W 20:59:48 10° NNW
Resurs 01 Rocket 3.0 20:52:16 10° SSW 20:56:25 39° W 21:00:37 10° NNW
ASTEX 1 3.3 20:52:40 10° N 20:57:37 85° E 21:02:30 10° S
Cosmos 1346 4.2 20:57:43 10° NNW 21:00:34 41° W 21:01:23 32° SW
Abrixas 4.5 20:58:49 10° SW 21:00:02 21° SSW 21:00:02 21° SSW
Cosmos 1743 Rocket 4.1 21:01:25 10° NNW 21:05:48 58° W 21:09:33 13° S
CENTAUR R/B 2.6 21:00:09 10° S 21:05:56 51° ESE 21:12:27 10° NE
Cosmos 1269 Rocket 4.0 21:01:18 10° SSW 21:06:35 83° WNW 21:11:54 10° NNE
Cosmos 1048 Rocket 3.9 21:03:09 10° SSW 21:08:28 88° ESE 21:13:44 10° NNE
NOSS 3-2 (C) 4.3 21:04:12 10° WSW 21:10:12 51° NW 21:16:46 10° NNE
Cosmos 2369 Rocket 2.1 21:07:24 10° NNW 21:13:04 70° ENE 21:14:17 53° SE
Cosmos 1943 3.1 21:08:55 10° S 21:14:26 60° ESE 21:19:58 10° NNE
Cosmos 1470 2.9 21:13:51 44° SSW 21:14:58 72° W 21:18:52 10° N
Envisat 3.4 21:16:18 45° NE 21:16:18 45° NE 21:20:42 10° N
Cosmos 1943 Rocket 2.9 21:11:42 10° N 21:16:39 35° NE 21:16:39 35° NE
Cosmos 2263 4.3 21:12:05 10° NNW 21:17:48 56° ENE 21:18:21 54° E
Cosmos 1603 4.3 21:12:59 10° SW 21:18:38 59° WNW 21:24:21 10° NNE
Cosmos 2279 Rocket 4.2 21:22:58 47° ENE 21:22:58 47° ENE 21:28:13 10° NNE
GP-B 3.0 21:18:51 10° N 21:23:19 83° W 21:23:34 78° SW
Cosmos 1733 4.1 21:24:29 45° NNW 21:24:29 45° NNW 21:27:18 10° N
Cosmos 1655 Rocket 3.9 21:19:31 10° N 21:25:42 64° E 21:26:29 59° ESE
Cosmos 1092 Rocket 4.3 21:21:19 10° NNW 21:27:28 65° W 21:32:26 16° S
Cosmos 2142 Rocket 4.5 21:27:34 10° S 21:33:57 86° W 21:40:24 10° N
Cosmos 1674 4.4 21:32:14 10° NNW 21:35:44 32° W 21:36:37 28° WSW
USA 215 3.7 21:33:35 13° NE 21:39:20 58° NNW 21:45:42 10° WSW
Cosmos 2026 Rocket 3.8 21:35:50 10° N 21:41:58 88° W 21:42:57 65° S
Exosat Rocket 4.5 21:35:58 10° NNW 21:42:39 87° ENE 21:45:29 48° SSE
Cosmos 1634 Rocket 4.2 21:37:21 10° SSW 21:43:35 69° W 21:49:48 10° N
Cosmos 1428 Rocket 4.5 21:39:43 10° N 21:45:29 65° NE 21:45:29 65° NE
H-2A R/B 4.0 21:48:55 22° N 21:48:55 22° N 21:50:38 10° N
ALOS 4.4 21:43:13 10° SSW 21:46:56 23° W 21:50:40 10° NW
Meteor 1-11 4.2 21:41:38 10° NNW 21:47:29 84° W 21:47:39 82° SW
Meteor 1-16 Rocket 4.3 21:50:29 62° N 21:50:29 62° N 21:54:56 10° N
ERS-1 Rocket 3.4 21:55:08 60° NW 21:55:08 60° NW 21:59:26 10° NNW
SeaSat 1 2.9 21:49:41 10° NNE 21:54:32 58° WNW 21:59:22 10° SW
Cosmos 1110 Rocket 4.5 21:54:12 10° NNW 21:58:36 59° NW 21:58:36 59° NW
ATLAS 5 CENTAUR R/B 4.0 21:56:06 10° W 22:00:06 24° NW 22:04:26 10° NNE
Cosmos 2369 Rocket 4.4 22:52:52 10° WNW 22:56:06 17° W 22:56:06 17° W
CENTAUR R/B 3.8 22:51:00 10° WSW 22:56:49 38° NW 23:03:21 10° NNE
Cosmos 1943 Rocket 4.1 22:55:29 10° NW 22:58:11 25° WNW 22:58:11 25° WNW
